Theta_e
292 288 287 285 288 289 289 290 289 289 288 286 286 283 284 283 287 289 289 292 289 289 288 289 288 287 289 291 292 293 291 290 291 292 294 294 295 295 295 295 296 296 298 300 300 300 301 302 305 309 310 311 311 315 316 317 317 318 318 317 317 317 316 316 315 314 315 315 310 309 313 315 311 312 314 317 319 320 322 323 325 326 328 329 328 325
291 287 286 289 289 289 291 288 287 288 287 288 284 284 285 284 286 288 290 290 289 289 283 284 285 287 289 290 291 292 289 290 291 292 292 294 295 295 295 296 296 297 294 296 297 299 298 299 302 306 308 307 309 311 314 316 317 317 315 316 317 313 314 316 317 316 315 316 317 317 315 310 307 308 312 315 315 317 317 319 321 322 326 327 326 322
287 286 289 290 291 288 287 288 288 288 287 284 285 283 284 286 286 290 288 289 290 288 287 283 286 289 290 290 291 291 292 294 293 293 294 294 294 294 295 295 296 295 296 294 296 297 297 299 301 305 307 308 311 312 314 315 314 313 313 314 314 313 314 314 315 314 314 309 308 311 304 309 302 299 300 306 307 313 314 314 316 318 320 323 323 322
286 286 290 291 288 289 287 287 288 287 285 284 283 285 283 283 286 285 285 288 290 289 287 285 287 290 291 290 291 294 293 293 292 291 292 293 294 294 295 295 295 295 295 296 297 297 296 297 300 302 305 308 308 308 308 311 313 313 312 312 313 312 312 311 310 310 306 306 302 302 303 302 301 304 298 300 304 309 311 314 314 314 317 319 321 321
285 289 290 289 289 289 288 287 288 287 286 284 281 281 282 287 287 285 289 288 285 288 286 285 285 286 282 284 285 287 288 291 292 292 292 293 293 295 294 293 293 294 295 296 296 294 297 299 301 304 306 305 307 308 310 311 313 314 312 312 312 311 311 309 307 307 305 305 303 302 302 301 301 301 301 302 303 308 311 312 311 313 314 317 318 319
287 287 289 290 288 287 288 287 285 286 283 284 284 286 287 286 288 289 284 286 279 280 281 286 279 276 279 282 283 287 286 288 287 289 292 292 293 293 294 295 294 294 294 295 296 295 298 300 301 300 301 304 306 307 309 311 312 312 311 310 309 308 308 307 306 306 306 307 306 304 304 303 302 303 299 304 307 305 308 311 311 309 311 314 315 317
287 291 290 291 288 286 286 285 287 286 282 283 286 287 287 287 287 286 287 284 279 279 285 284 280 278 280 285 287 289 289 290 290 287 290 291 291 291 293 292 293 295 295 293 294 296 298 299 299 299 301 303 305 307 306 306 308 309 309 308 308 308 307 306 306 306 306 305 305 306 307 307 306 306 304 302 301 303 302 305 308 310 309 311 314 314
291 290 288 288 288 286 286 287 289 286 283 283 285 287 287 288 287 286 282 284 279 279 282 282 278 277 281 284 285 285 285 286 288 290 290 291 293 291 291 292 293 295 293 294 295 296 299 300 301 302 302 303 305 304 303 305 305 307 307 306 306 306 306 306 306 306 307 307 305 305 305 304 304 304 303 302 302 300 301 301 304 307 308 309 311 313
291 289 288 287 284 284 286 284 289 285 283 284 287 288 286 287 286 283 282 281 282 282 281 277 283 282 277 283 285 284 284 284 287 289 290 291 291 289 290 291 293 293 293 294 296 297 298 300 300 301 301 301 301 302 304 305 306 306 305 306 305 306 305 305 305 305 305 306 305 305 304 303 302 302 302 300 302 300 300 300 301 305 307 307 308 311
291 289 289 289 286 285 286 289 287 288 289 290 288 288 287 286 284 281 280 285 278 278 275 279 282 277 278 279 282 280 285 285 287 289 290 291 290 288 289 290 291 291 292 293 295 295 297 299 299 300 300 299 302 301 302 302 302 303 303 304 304 304 304 304 304 304 304 304 303 303 302 302 301 300 300 300 301 301 299 301 301 304 305 306 306 307
290 293 293 290 288 286 288 289 287 288 290 290 288 288 284 282 281 279 278 276 278 274 275 279 282 280 277 279 281 284 285 285 286 286 286 286 286 288 290 289 293 294 294 294 294 293 294 295 297 297 300 300 298 298 299 301 302 302 303 304 304 304 303 303 303 303 303 303 303 303 303 302 302 300 301 300 300 300 299 302 304 303 304 304 305 305
289 289 291 290 292 289 289 290 289 288 287 289 285 279 280 281 279 277 273 276 274 269 274 277 281 281 275 276 280 284 285 285 288 288 287 289 289 289 292 292 294 294 294 294 294 295 294 296 296 296 298 297 298 298 298 299 299 301 302 303 303 301 302 302 303 302 303 303 302 302 303 302 302 301 301 301 301 300 301 302 304 303 302 302 303 303
287 287 288 290 293 290 287 289 289 286 285 286 283 283 277 273 271 273 268 275 271 272 279 279 281 281 282 282 286 286 287 289 287 288 288 290 289 288 293 294 293 291 293 294 294 294 295 295 295 296 297 296 297 299 299 300 300 300 301 302 302 301 300 301 302 302 302 302 302 302 302 302 302 301 302 302 301 300 301 302 302 301 301 301 301 302
284 282 287 288 291 292 291 288 286 286 286 283 285 279 275 271 270 266 262 265 268 274 278 281 283 281 280 283 289 291 292 290 288 287 289 288 288 292 294 294 293 292 292 292 292 292 292 293 294 296 297 297 296 297 300 300 300 300 300 300 301 302 300 300 300 301 301 301 302 302 302 303 302 301 302 302 302 300 301 301 301 301 301 301 301 302
276 278 285 287 287 290 290 290 291 287 287 285 282 284 279 271 268 266 265 271 272 272 276 278 277 276 278 283 287 289 290 289 290 290 287 286 288 289 291 292 291 291 291 291 291 294 294 295 294 297 296 295 296 298 299 299 299 298 299 300 300 300 299 299 300 300 301 301 301 301 302 302 302 302 302 303 302 301 300 300 300 301 301 302 302 302
282 279 282 288 288 290 290 289 288 286 287 283 281 281 278 277 275 275 268 270 269 271 272 276 278 278 283 284 286 287 288 289 289 287 286 288 289 288 290 293 294 293 294 293 293 293 293 294 294 294 294 295 297 298 298 299 298 299 300 299 300 301 300 299 298 299 300 301 301 300 301 301 301 301 301 301 301 301 301 301 302 302 301 302 302 302
280 281 285 287 289 290 290 288 289 287 281 282 284 279 281 281 279 272 272 276 273 271 276 272 279 282 281 284 289 290 287 289 287 287 286 287 288 287 290 292 290 292 293 293 294 294 295 294 294 295 294 295 296 297 299 300 300 300 300 300 300 300 298 298 298 299 299 299 299 299 300 301 300 301 301 301 301 301 301 302 303 302 302 301 301 302
282 277 285 286 286 289 288 288 288 287 285 285 281 282 284 285 282 278 273 267 266 271 273 274 277 279 277 279 281 282 286 287 289 289 287 287 287 288 293 295 292 292 292 293 294 294 295 296 296 295 296 296 298 298 298 299 300 300 301 300 300 299 299 299 298 298 298 298 298 299 299 300 301 301 301 301 301 300 301 302 302 302 301 301 300 301
284 280 282 284 285 287 286 291 289 289 287 283 281 284 285 278 278 278 272 271 267 266 269 273 274 276 280 282 284 284 284 286 289 289 287 289 290 292 293 293 291 290 290 290 292 294 296 297 297 296 297 297 297 297 298 299 300 300 299 300 300 301 301 300 299 298 298 298 299 299 299 299 300 301 301 301 301 300 301 301 301 301 301 300 299 299
286 278 278 285 286 287 286 287 283 285 289 288 288 287 284 281 276 276 278 272 274 269 265 271 271 280 281 281 284 286 283 284 286 285 286 290 292 292 291 291 292 291 291 292 292 294 296 297 297 297 297 297 297 297 297 299 299 300 300 299 299 299 298 298 298 298 298 297 298 298 297 298 299 300 300 300 300 300 300 301 301 300 300 299 298 298
284 282 275 282 284 285 283 285 283 286 285 285 285 282 285 283 283 279 279 275 275 265 264 268 272 278 279 283 285 287 287 286 287 290 290 290 291 291 290 291 291 290 291 292 293 294 295 295 296 296 296 296 294 294 296 298 299 300 299 299 299 299 298 298 298 297 298 297 297 296 296 297 297 298 299 298 299 300 300 301 300 300 300 298 297 297
282 281 277 281 282 281 283 284 286 290 291 289 288 285 287 282 278 275 276 279 272 274 272 265 275 282 282 286 286 285 289 289 288 288 289 288 290 290 291 291 289 291 291 292 292 293 295 294 293 293 292 291 292 295 296 298 297 297 298 299 298 298 299 298 298 297 297 296 296 296 296 296 296 297 297 297 297 297 298 299 299 299 297 296 296 296
287 277 281 277 282 286 284 288 285 286 286 287 286 284 287 286 282 276 274 274 274 277 275 273 269 282 286 288 287 287 286 286 286 287 288 290 289 290 290 289 289 290 292 293 293 294 294 293 292 292 292 294 295 296 294 294 298 299 297 297 297 298 299 298 298 297 296 295 294 294 294 293 292 293 293 293 293 294 295 296 297 296 296 295 294 294
291 277 280 279 279 279 283 284 285 284 288 287 285 282 284 285 282 280 276 276 280 274 275 274 271 282 285 285 285 284 283 283 283 285 288 287 289 290 290 291 291 291 292 293 293 294 294 290 289 291 292 294 294 294 295 296 296 297 297 297 297 297 298 296 296 294 294 293 293 292 291 291 291 291 291 292 292 293 294 295 295 295 295 294 294 293
282 280 283 272 271 276 278 283 284 285 285 282 282 284 283 282 282 276 275 274 278 277 280 277 275 282 287 282 285 284 287 289 289 289 288 291 290 290 290 291 292 292 293 294 295 295 292 291 291 292 293 294 295 294 293 294 296 296 297 296 297 298 296 295 294 294 293 292 291 290 290 290 290 290 291 291 291 291 292 292 294 294 294 293 292 292
288 282 282 275 276 274 270 276 279 282 283 283 278 284 286 287 283 283 281 278 278 280 279 278 280 286 287 284 290 285 285 289 287 287 286 288 289 291 292 293 293 293 295 295 296 293 293 292 289 289 290 292 293 294 293 293 294 295 295 296 296 297 295 294 292 293 293 291 291 291 290 290 289 290 290 291 291 291 291 292 294 294 293 293 292 291
280 281 285 284 283 280 282 282 283 284 282 283 281 285 285 286 287 287 282 279 280 282 274 281 284 286 286 285 285 286 284 288 289 288 290 291 291 289 289 289 289 292 295 297 295 293 290 290 293 293 292 293 292 291 292 292 294 294 295 295 295 295 295 293 292 292 292 291 291 291 291 290 290 290 290 290 290 290 290 290 291 292 293 292 292 291
278 282 284 285 285 286 286 281 285 289 286 286 285 283 286 286 285 285 284 282 287 279 280 285 285 283 286 289 289 289 288 286 288 288 290 291 291 294 295 291 292 291 292 291 292 293 294 294 293 292 293 292 293 291 291 292 293 294 294 295 295 293 293 293 291 292 292 291 291 291 292 291 290 290 290 289 289 290 290 290 290 291 292 292 292 291
284 282 285 284 284 286 284 283 286 288 288 287 287 286 284 286 285 284 285 288 287 282 282 286 285 284 287 290 290 290 291 291 292 292 292 293 292 291 291 292 293 293 293 292 293 293 293 294 295 295 294 293 290 290 291 292 292 292 293 293 293 291 293 291 291 292 292 291 291 292 293 290 289 289 289 289 289 289 289 289 290 289 290 290 291 291
286 282 283 284 284 285 284 283 285 286 285 284 285 286 287 286 286 286 287 288 287 285 287 288 287 285 289 291 291 289 291 291 291 291 290 290 291 292 291 291 291 292 292 293 294 293 293 295 295 295 294 291 290 291 292 292 292 292 292 293 293 292 292 289 291 292 291 291 292 292 290 288 288 288 288 288 289 289 289 289 289 289 289 289 290 290
289 283 288 281 282 283 285 283 283 285 285 284 284 285 286 287 287 287 287 288 287 286 287 287 286 286 291 293 290 291 289 289 289 288 291 291 290 290 291 292 292 293 295 295 294 295 294 293 292 292 292 293 293 293 293 293 293 291 291 292 292 292 290 289 291 291 291 292 292 291 288 288 288 288 288 289 289 289 288 288 288 288 288 289 289 289
289 284 283 282 281 281 284 282 282 281 281 282 284 285 285 284 283 285 284 287 285 285 286 286 284 285 291 290 293 293 289 290 292 293 291 292 292 292 292 292 292 293 294 295 295 294 293 293 294 293 292 292 292 292 292 293 292 290 291 292 291 291 288 289 290 291 292 292 292 291 290 289 288 288 288 288 288 288 288 288 287 288 288 288 288 288
287 286 284 282 283 283 285 282 281 282 282 282 283 286 287 286 287 287 288 289 289 290 285 284 285 291 293 288 288 290 289 290 290 289 290 291 292 292 293 293 292 293 294 294 294 294 294 293 292 292 292 292 293 293 292 291 289 291 292 291 291 288 289 289 290 291 291 292 291 291 290 288 288 288 288 288 288 288 287 287 287 287 287 287 288 288
284 286 285 284 284 284 282 280 284 283 277 280 291 290 290 288 287 285 286 287 289 290 288 291 292 293 290 288 291 292 292 290 292 293 294 295 294 291 292 292 293 293 293 293 292 292 292 292 292 292 291 292 291 290 290 288 290 292 290 289 288 288 289 289 289 289 291 291 291 290 289 288 288 288 289 288 287 287 287 287 287 287 287 287 287 287
283 284 283 282 284 284 279 282 280 277 280 291 294 293 294 293 291 289 290 290 290 290 290 290 291 292 293 291 291 291 292 293 293 293 291 290 292 293 294 293 292 292 292 291 292 292 290 290 290 289 288 289 289 289 288 289 287 287 287 287 287 287 288 288 289 289 290 290 290 289 289 288 288 288 288 287 287 287 287 287 287 287 287 287 287 287
285 285 284 283 284 284 281 282 277 278 287 289 290 291 291 291 289 288 287 290 291 290 291 290 292 294 294 294 294 294 294 294 291 289 289 291 292 294 292 293 293 291 291 291 290 290 288 288 288 288 289 288 287 287 286 288 286 287 288 286 287 285 287 288 288 289 287 289 289 289 289 288 288 288 288 287 287 286 287 287 287 287 286 286 286 287
288 284 285 283 287 282 283 283 283 287 286 288 289 286 289 287 286 287 285 288 291 292 292 291 292 293 293 294 294 295 294 290 289 292 289 292 293 291 293 291 291 289 289 288 288 288 287 287 286 286 285 286 286 286 288 286 285 286 286 287 285 285 286 286 287 288 288 289 289 289 289 288 288 288 287 287 287 286 287 287 286 286 286 285 286 286
291 287 286 285 283 286 283 282 282 282 279 285 289 288 291 292 292 292 290 288 294 293 294 293 293 294 294 294 294 295 290 288 290 287 290 291 290 290 288 288 287 287 286 287 285 285 285 284 284 283 284 285 286 285 284 283 284 285 286 286 284 284 285 286 288 288 288 288 289 288 288 288 288 288 287 287 287 287 287 287 286 286 286 286 286 285
292 292 287 286 285 284 282 280 281 279 283 288 289 290 291 292 294 291 288 285 290 290 293 293 293 294 294 294 294 291 289 288 288 287 288 285 286 285 288 288 287 287 286 286 287 288 286 286 285 284 283 283 286 287 284 282 283 285 286 285 284 283 286 287 288 288 288 289 288 288 288 288 287 287 287 287 287 287 287 286 286 286 285 285 285 286
288 287 286 284 283 285 283 281 280 284 283 285 284 284 287 289 293 290 281 282 289 290 293 293 292 293 293 293 292 288 287 285 289 289 285 285 288 286 287 291 289 288 287 284 284 285 286 284 285 286 286 285 287 285 283 282 284 284 286 286 283 285 287 288 288 288 287 287 287 287 287 287 287 287 287 287 287 287 287 286 285 284 284 284 284 285
285 285 285 282 283 284 284 282 284 284 286 283 285 284 287 291 293 284 280 287 289 288 287 289 290 292 291 289 287 287 288 290 288 288 288 285 288 290 287 284 284 285 286 286 287 285 284 283 284 285 286 286 285 284 282 282 283 285 284 284 283 286 288 287 287 286 286 286 286 286 287 287 287 287 287 287 287 287 285 284 284 283 283 283 283 282
285 285 284 285 283 282 283 282 282 284 286 285 282 287 289 291 283 283 288 286 288 288 287 286 286 286 288 287 286 287 287 285 284 283 284 285 286 285 285 285 285 287 285 284 284 283 283 283 284 284 284 284 283 282 281 281 282 285 284 283 285 288 286 285 285 285 284 285 286 286 286 286 286 286 287 286 285 285 284 283 283 283 283 282 281 281
285 284 281 283 284 284 284 281 281 277 287 289 289 287 290 287 287 289 287 289 286 286 287 286 287 287 287 288 286 287 285 284 285 286 285 285 285 286 286 286 287 286 287 287 288 286 284 285 286 286 286 286 283 282 281 280 282 283 282 284 287 286 283 284 284 284 284 284 285 285 285 284 284 285 285 284 284 284 284 281 281 281 281 280 280 280
289 284 283 284 287 281 282 279 280 286 288 288 290 286 288 289 292 290 288 287 288 286 286 286 286 287 286 287 287 285 285 286 285 285 283 283 283 284 285 285 285 285 286 286 285 285 282 284 285 286 287 286 284 282 280 281 283 284 282 286 287 283 282 281 282 282 282 283 283 283 283 282 282 283 282 283 282 282 282 280 280 280 280 280 280 280
289 287 287 284 288 286 284 286 288 288 288 287 288 289 291 292 289 288 289 289 288 288 284 286 287 286 286 286 286 286 287 287 287 285 286 286 284 284 285 286 286 286 286 286 287 285 282 283 284 284 285 287 287 286 281 279 281 283 284 285 282 283 283 282 280 280 281 282 282 281 280 277 280 280 278 279 281 281 281 278 278 279 277 279 279 279
285 285 285 287 286 286 287 287 287 287 287 288 288 289 290 288 287 288 288 289 288 288 287 289 288 286 286 285 287 286 287 285 284 284 284 284 284 284 284 284 284 284 284 284 286 286 283 281 280 280 284 287 287 287 283 279 279 282 286 283 281 281 280 280 280 281 281 280 279 278 275 276 275 275 276 277 279 281 281 281 279 280 278 278 279 279
285 285 284 284 284 286 283 286 286 288 286 287 289 288 287 287 288 287 287 288 289 288 288 286 285 285 285 284 286 285 285 285 285 286 285 285 286 285 285 286 285 284 285 287 287 285 286 282 285 286 285 286 287 287 286 281 279 281 283 283 282 280 279 279 279 280 280 279 278 274 274 275 276 275 275 275 276 277 277 278 279 279 279 279 279 279
283 284 284 282 284 284 284 286 285 286 285 285 286 287 287 288 288 287 288 287 286 286 287 288 287 287 284 286 287 286 286 286 285 286 286 286 287 287 286 287 286 286 285 284 285 283 282 282 283 285 285 286 287 286 285 284 284 282 280 280 280 278 276 278 278 279 279 278 274 275 273 275 278 277 275 275 275 276 276 276 278 279 280 279 280 279
284 287 280 282 283 283 282 284 282 283 285 285 285 284 285 285 286 286 286 286 286 286 286 286 287 287 286 286 287 286 285 285 285 285 285 285 286 286 287 287 287 286 286 286 287 283 284 283 284 285 284 285 286 284 284 284 283 281 280 280 278 276 276 279 278 278 275 274 273 275 276 275 275 275 275 274 274 275 276 278 279 280 280 280 281 282
283 281 282 282 278 280 283 283 284 282 281 284 282 283 281 281 283 284 284 283 283 282 282 283 285 287 287 286 285 284 283 284 284 284 285 285 284 285 285 285 285 285 285 285 284 283 283 283 282 283 283 284 283 282 282 282 281 279 278 277 276 274 277 279 278 275 277 275 274 275 274 275 274 274 276 276 276 276 277 279 282 281 280 280 283 284
282 282 282 280 281 279 282 283 282 282 281 282 282 280 278 280 282 281 279 279 279 279 280 281 281 283 283 283 284 283 282 282 282 282 282 282 283 283 283 283 283 283 284 284 283 283 283 283 283 282 282 283 282 281 281 281 280 278 277 275 275 274 277 277 277 277 277 276 276 277 276 276 276 276 276 277 278 278 278 277 279 284 285 284 283 284
Wind_Speed
1 5 6 7 8 9 5 7 4 4 7 5 4 4 3 3 1 1 1 1 0 1 5 6 6 5 10 10 12 11 1 3 6 10 12 11 11 11 10 11 13 11 14 7 5 6 7 8 7 7 6 7 6 6 7 9 10 10 11 10 11 8 7 8 8 8 8 9 6 4 8 9 6 6 5 6 5 6 7 7 8 10 9 10 11 11
5 5 6 8 8 9 9 4 5 5 2 7 6 5 1 1 2 1 0 1 2 2 2 2 2 9 12 11 12 10 5 9 11 12 12 14 13 11 11 14 14 12 4 6 6 7 6 6 6 6 7 6 8 8 8 11 12 10 8 10 10 7 8 9 10 9 8 9 10 10 9 5 4 5 6 6 5 6 6 7 7 8 9 10 9 10
3 7 9 8 5 3 3 5 3 7 5 3 5 4 4 1 1 1 1 1 1 2 7 3 5 10 10 11 11 9 13 11 9 10 12 12 12 11 11 12 12 7 10 6 8 7 5 6 6 6 7 8 11 10 11 9 8 8 9 9 8 8 9 9 8 8 9 5 2 4 3 5 2 1 1 1 2 4 5 6 6 6 7 8 9 9
3 5 11 3 5 7 3 4 7 6 7 6 4 1 3 2 2 1 3 2 2 1 2 3 7 13 7 6 12 14 10 8 6 6 11 10 13 14 14 11 10 10 10 10 11 11 6 4 5 5 6 10 7 6 6 7 10 8 9 8 9 9 8 8 7 7 3 4 3 4 3 3 2 2 2 2 1 3 4 7 6 5 5 6 7 10
7 1 0 6 3 7 6 2 6 5 2 2 3 3 4 1 1 3 1 0 1 1 2 3 5 10 5 3 4 4 3 4 7 4 9 11 10 11 7 7 7 10 9 11 9 7 3 5 8 13 11 5 7 8 9 10 10 9 12 11 10 9 9 7 6 6 5 6 5 5 5 4 3 2 2 1 2 4 4 4 6 6 4 3 4 7
3 3 3 5 3 3 6 3 4 8 2 1 2 3 3 5 5 1 3 1 5 2 2 2 4 5 5 6 8 9 6 7 2 4 8 10 8 8 11 15 7 7 8 10 9 6 6 7 6 4 4 7 7 8 9 9 9 8 8 8 7 6 6 7 6 7 7 7 8 7 6 5 4 6 4 9 9 6 6 6 1 2 4 4 4 4
4 2 3 6 5 3 4 2 3 4 6 2 2 3 5 7 5 3 0 2 1 1 1 3 2 9 5 5 6 9 8 12 10 6 12 13 9 6 10 5 6 9 8 5 4 3 5 7 5 5 6 7 8 9 5 5 6 6 7 7 7 8 7 7 7 8 8 7 7 10 10 9 10 10 7 2 1 5 4 2 4 4 4 4 5 4
1 2 6 5 5 4 4 2 2 8 7 1 1 5 6 7 5 3 3 2 2 1 4 3 3 3 10 7 6 4 4 10 10 13 12 11 13 8 3 5 8 10 6 4 5 6 6 6 8 11 10 8 10 5 5 5 5 7 8 8 8 7 8 8 8 9 9 10 9 8 8 7 8 8 7 5 4 3 4 5 4 4 5 5 5 5
2 3 4 3 3 3 5 3 2 3 4 2 3 7 4 6 4 5 3 3 0 2 7 4 0 1 6 10 5 1 5 5 10 12 11 11 9 7 5 6 8 8 6 6 7 8 8 8 8 6 7 6 4 6 8 8 8 7 6 7 6 8 8 7 8 9 8 8 9 9 8 7 6 5 5 4 5 5 5 5 4 5 6 5 5 6
2 2 4 7 6 5 2 1 2 5 5 1 5 6 6 7 6 4 3 2 1 1 7 2 2 2 8 8 6 2 1 7 9 10 11 10 8 5 5 8 9 5 4 4 6 5 5 6 5 4 2 4 6 4 4 4 4 5 5 7 8 8 7 7 8 8 8 7 7 8 7 9 7 6 5 5 6 6 6 7 6 6 6 6 6 6
1 3 5 4 4 3 5 0 1 0 3 7 5 7 6 8 4 3 7 2 2 2 7 8 7 5 6 6 7 3 5 5 5 7 5 6 7 5 6 7 4 1 0 2 3 4 4 2 2 3 5 5 3 3 4 5 5 5 6 7 8 8 7 7 9 9 9 8 8 9 9 10 10 8 7 6 6 6 6 8 7 7 7 6 7 5
2 1 1 1 2 2 2 5 5 2 3 6 2 3 4 2 6 3 4 4 1 5 5 2 3 1 6 6 6 8 7 5 5 6 7 9 9 6 4 2 2 1 1 2 2 1 1 1 0 2 4 4 4 4 4 4 4 5 6 6 8 6 7 7 7 8 9 9 9 8 9 11 10 10 9 10 10 9 9 9 9 7 6 7 6 6
2 2 2 6 4 7 4 9 4 5 3 6 6 7 4 3 5 2 4 1 5 6 1 4 1 2 13 7 7 9 8 9 6 6 5 7 8 7 4 3 2 2 1 1 1 1 1 3 4 4 5 4 5 6 5 6 6 5 6 7 8 8 7 8 7 9 9 9 10 10 10 10 8 9 10 10 9 8 9 8 8 7 7 6 7 8
2 2 3 3 3 3 5 10 2 2 0 5 7 6 5 1 1 3 3 2 6 5 5 2 1 6 3 5 13 14 12 6 4 7 8 6 5 4 3 3 2 3 3 3 2 3 4 4 5 5 5 5 4 5 6 6 6 6 5 5 7 8 7 6 7 9 9 10 10 10 10 9 8 9 9 9 9 8 8 7 8 8 8 8 9 8
3 3 5 5 2 2 3 6 13 9 8 8 2 9 8 8 5 3 3 4 5 4 3 5 1 7 2 2 2 7 9 10 6 6 6 5 5 6 6 4 3 3 5 4 4 5 5 5 5 6 4 4 5 5 6 5 5 4 5 6 7 6 6 7 8 8 10 10 9 9 9 9 8 9 9 9 8 7 8 7 8 8 8 9 8 8
7 3 4 3 2 4 7 1 3 6 3 0 3 6 5 5 6 1 5 2 1 1 3 1 7 4 5 3 7 7 8 9 6 8 4 6 3 4 5 4 5 5 5 5 5 5 6 6 5 4 4 5 5 6 5 5 4 5 7 6 7 8 7 8 7 8 9 9 8 8 10 10 9 8 8 7 7 7 8 9 9 9 9 8 8 8
3 4 1 6 4 4 2 2 1 2 6 4 4 4 6 3 6 4 2 1 1 3 9 2 8 7 8 7 10 8 5 9 5 6 4 5 2 5 7 8 4 5 5 5 6 6 7 6 7 6 5 5 6 6 8 7 7 8 7 7 8 7 5 7 8 9 8 8 7 9 9 9 9 10 11 10 9 9 8 8 9 9 9 9 8 7
9 4 1 3 4 0 0 0 2 3 3 8 2 7 2 2 4 4 4 2 2 4 8 2 9 6 3 10 4 3 2 7 8 8 7 6 6 6 8 11 2 4 5 6 6 6 7 7 6 5 6 7 8 8 6 6 6 7 7 8 9 8 9 8 9 9 9 10 9 9 10 10 10 10 10 9 9 8 8 8 8 8 8 9 8 8
6 1 1 1 1 6 3 1 1 2 2 4 3 4 6 2 1 2 4 3 1 2 6 4 2 7 9 10 0 2 1 6 8 8 6 7 6 8 11 11 7 6 5 4 5 7 8 9 8 8 9 8 8 6 6 5 6 6 7 8 9 11 11 10 9 8 8 9 8 8 10 10 10 9 8 8 7 7 9 10 9 9 9 7 7 8
1 4 2 1 2 1 1 4 9 3 2 2 3 3 1 3 2 5 7 4 6 5 1 9 3 12 5 7 9 6 4 5 6 5 5 8 11 10 8 7 8 6 5 6 5 6 8 8 8 8 9 10 10 8 7 7 7 9 9 8 8 6 5 6 8 8 10 9 8 8 7 7 8 8 8 7 8 9 10 10 10 10 9 9 7 8
3 1 5 1 3 1 3 5 8 10 8 2 2 4 1 0 2 4 1 4 4 5 5 3 8 9 4 6 9 9 8 8 8 9 10 9 10 10 7 8 8 5 5 6 5 6 6 6 6 6 6 5 4 4 5 7 10 9 6 8 7 9 8 9 9 8 9 7 8 8 9 9 8 8 7 7 8 9 9 9 10 9 9 7 9 8
3 2 7 2 1 4 7 2 6 13 14 13 14 12 13 9 4 4 8 2 1 3 5 2 12 11 6 3 7 7 10 10 7 7 6 6 8 11 9 7 5 5 6 6 5 5 7 5 4 3 4 4 5 6 8 7 5 6 8 8 7 8 10 10 9 9 7 7 7 9 8 7 6 7 7 8 8 9 8 8 9 8 7 9 8 9
5 3 9 5 9 10 3 0 2 4 1 0 2 5 5 3 5 5 6 5 1 3 5 4 1 15 8 8 7 6 4 6 6 5 7 7 7 8 7 5 5 5 7 7 5 5 6 5 3 3 4 5 7 7 6 6 8 8 7 7 8 9 12 9 8 6 6 7 7 8 7 6 7 7 7 8 7 8 7 6 6 6 9 8 7 7
7 3 4 1 1 3 2 2 2 2 1 3 2 1 5 7 6 5 3 6 7 1 2 3 1 14 2 1 4 2 3 2 0 6 5 4 5 7 6 6 5 5 6 7 6 6 5 4 2 2 4 6 7 7 8 7 5 6 7 9 8 12 12 7 7 6 7 7 7 7 7 8 7 8 9 9 8 9 8 7 7 6 7 7 7 9
4 4 8 3 2 2 4 3 2 2 1 4 3 3 4 4 3 2 5 1 2 8 8 7 10 15 1 2 1 2 2 4 3 1 3 2 4 5 4 4 4 4 6 6 5 6 5 1 1 4 5 6 6 6 5 6 7 7 9 8 11 12 8 8 7 8 8 7 8 8 8 9 8 9 10 10 8 9 8 8 8 7 8 7 7 7
7 6 9 7 11 10 6 9 14 13 10 2 2 5 7 9 7 5 5 2 6 7 9 7 12 12 1 2 1 2 1 3 4 5 4 4 5 6 7 8 7 6 6 7 8 8 6 3 3 5 6 6 7 7 6 6 7 8 8 11 10 9 7 8 6 7 8 8 8 9 10 10 9 11 11 10 9 9 8 9 8 8 7 7 9 8
3 2 7 12 14 14 14 6 2 10 4 8 5 10 7 8 11 9 4 6 15 10 4 11 15 18 9 3 2 6 1 3 4 5 5 5 6 5 5 5 5 5 6 8 7 8 6 5 7 7 6 7 6 6 6 7 8 8 9 11 9 8 7 7 7 8 8 8 9 9 11 11 12 11 10 10 9 8 7 8 8 8 9 8 8 9
4 5 9 12 14 14 10 6 9 15 13 13 11 8 11 11 11 13 12 16 12 2 14 13 9 9 21 17 13 12 8 6 8 6 7 8 8 9 10 8 7 6 8 6 7 7 8 7 7 7 8 7 8 5 6 7 9 9 9 11 9 7 7 7 7 8 9 9 9 11 13 13 10 9 9 8 8 8 8 8 8 8 8 8 10 10
6 8 8 7 11 12 5 5 9 10 12 12 14 13 13 15 12 15 19 21 12 11 17 19 10 15 21 21 11 11 12 13 12 11 10 10 7 6 7 8 8 8 9 9 9 7 6 7 8 8 8 7 5 6 8 9 9 8 9 9 8 6 9 6 7 9 9 9 10 13 12 7 6 6 7 8 8 9 9 9 9 8 8 8 9 8
4 5 6 8 11 10 6 6 7 12 7 5 10 14 17 17 19 22 22 21 19 13 15 19 17 16 18 21 10 9 10 8 7 4 2 3 6 8 7 7 8 9 9 10 9 7 7 8 8 8 7 6 6 7 9 9 9 9 8 10 9 8 6 5 7 8 7 9 12 10 5 5 5 7 7 8 10 10 9 9 9 9 9 10 9 9
6 7 9 5 6 9 11 6 6 11 9 8 9 11 15 17 19 22 19 17 14 13 13 16 18 19 19 14 5 8 4 1 1 4 7 7 6 7 8 8 8 9 11 10 9 10 8 7 6 7 7 9 8 9 8 9 8 6 8 10 8 8 5 6 8 8 8 12 12 7 5 6 8 7 9 10 9 9 10 10 8 9 10 10 9 10
4 4 2 4 6 5 7 8 8 5 5 7 11 14 16 15 12 8 11 9 10 14 16 15 16 19 19 2 9 8 5 6 11 11 7 7 9 10 11 10 8 10 12 11 10 9 8 8 8 7 6 7 8 8 7 8 7 6 9 8 8 7 4 6 8 9 10 11 9 8 8 8 7 8 10 9 11 10 9 8 9 10 10 10 11 10
6 5 5 4 8 10 7 8 8 8 3 7 12 21 21 10 14 12 10 12 16 17 13 13 20 20 14 4 5 7 6 10 8 5 6 10 11 10 11 10 9 11 11 10 10 9 8 6 6 6 7 6 7 6 7 6 5 6 7 6 6 3 5 6 7 8 10 11 9 9 8 7 9 10 10 11 9 7 6 8 9 11 10 12 10 7
2 7 8 6 9 9 5 7 7 7 11 16 15 5 8 18 15 11 14 18 17 10 12 16 17 13 5 5 10 15 9 6 10 10 10 10 9 8 9 9 10 9 9 8 6 6 6 7 6 6 6 7 7 6 6 4 4 6 5 5 3 4 5 6 7 8 10 9 8 7 6 7 8 9 10 7 7 7 8 9 12 10 9 8 7 10
4 5 6 3 7 10 4 9 5 13 16 13 2 9 17 17 13 20 21 16 12 12 12 14 16 19 16 6 7 9 8 8 7 9 6 6 7 7 9 8 7 9 7 5 6 6 5 5 6 6 6 5 5 5 5 6 3 4 5 3 3 4 5 6 7 8 8 7 8 7 8 8 8 9 8 7 7 8 10 11 10 9 9 9 10 11
4 6 4 1 3 5 3 7 10 13 7 3 4 5 1 2 5 7 9 12 13 15 17 19 22 21 16 12 11 10 11 10 5 5 5 7 7 10 7 7 6 5 5 5 5 5 4 3 4 4 5 4 4 5 4 5 4 3 4 1 3 4 5 5 6 7 5 8 9 9 8 8 9 10 8 8 8 9 11 11 10 10 8 8 8 8
4 2 1 2 3 10 8 12 13 5 8 5 7 3 6 7 6 10 10 13 13 12 12 15 18 17 14 11 13 13 10 4 6 5 4 9 6 0 3 4 4 3 4 3 3 3 3 3 4 4 3 5 4 4 5 4 4 4 3 2 4 4 5 4 6 8 8 9 9 8 8 9 9 9 9 9 9 11 11 10 10 9 7 8 9 9
7 8 3 6 4 4 9 8 4 4 12 17 9 0 5 6 8 8 9 14 9 11 15 16 18 17 14 14 15 15 1 4 13 6 6 3 1 2 1 2 2 3 3 3 3 4 4 4 4 3 3 5 5 4 3 3 4 4 4 4 3 3 4 5 8 8 8 9 9 8 8 9 9 10 9 9 12 12 10 9 8 8 8 11 11 11
7 7 3 10 4 5 7 9 9 10 12 8 1 4 4 8 12 6 6 14 6 8 11 15 16 16 15 14 16 6 1 8 11 3 4 3 3 3 2 2 2 2 3 3 3 4 4 4 3 4 3 3 6 5 3 4 3 3 5 5 4 4 5 7 8 8 9 10 7 7 8 8 8 9 9 10 11 10 10 10 10 8 7 9 8 10
10 8 6 8 7 6 8 10 10 4 6 2 2 2 1 4 7 7 7 8 3 8 15 15 13 13 14 13 4 3 7 8 9 6 5 3 1 3 3 0 1 2 4 4 4 5 5 4 4 5 5 5 6 5 5 4 3 4 5 5 3 5 8 9 9 8 6 6 6 6 6 7 8 9 9 10 9 8 9 7 6 7 8 8 8 8
7 4 8 12 9 9 11 6 1 5 4 4 2 1 2 3 6 7 11 3 2 4 5 3 3 4 4 1 4 4 6 6 2 1 2 2 3 2 1 1 2 2 4 5 5 5 4 3 3 4 5 6 5 5 4 3 3 5 5 4 4 9 10 7 6 6 6 6 6 6 7 7 8 9 9 9 9 8 7 6 7 7 8 8 7 7
6 5 2 5 9 8 7 7 5 3 5 5 2 9 5 7 4 9 3 1 3 5 1 3 5 1 1 1 1 1 2 2 2 3 4 4 2 4 5 5 6 7 4 3 5 3 4 4 5 5 6 5 5 4 4 3 4 5 5 4 8 11 5 4 6 5 6 6 7 7 7 7 7 7 8 7 7 7 7 6 7 7 8 7 6 8
8 6 5 8 4 2 2 6 4 8 2 4 9 2 1 4 3 1 0 3 2 3 5 4 5 2 4 5 1 0 2 3 3 3 4 5 5 5 6 6 6 6 9 8 9 4 1 5 6 7 7 6 3 3 3 2 5 5 5 7 12 7 4 5 5 5 6 6 7 7 7 6 6 7 6 6 7 7 8 6 6 6 6 7 7 8
6 6 3 4 5 6 8 8 6 2 1 1 1 5 1 1 1 1 3 3 4 1 3 4 2 2 2 4 4 4 1 1 2 0 2 4 4 6 6 6 5 5 6 5 4 6 3 5 5 8 7 6 5 3 3 2 6 6 6 11 8 4 4 4 5 5 6 7 6 6 6 5 6 6 5 6 5 6 6 6 6 6 7 7 7 7
6 9 5 9 6 8 6 5 2 2 2 0 3 3 3 2 3 3 5 3 4 5 1 4 3 2 2 2 1 0 1 0 2 2 1 3 3 5 6 7 6 7 6 7 9 7 4 4 6 7 9 10 9 7 2 2 4 7 9 7 4 5 6 6 5 5 7 7 6 6 5 4 5 5 5 4 5 6 6 5 5 6 4 6 6 6
4 1 0 4 3 1 2 1 3 1 3 5 4 4 6 4 3 5 5 5 4 2 1 1 2 3 3 1 2 1 1 3 3 4 3 3 4 5 6 6 7 6 5 5 7 6 5 4 4 5 8 11 9 8 4 2 3 7 11 5 5 6 6 6 6 7 8 7 6 6 4 5 4 3 4 4 4 5 5 6 6 7 6 6 6 6
1 0 1 3 1 5 7 3 4 4 4 5 6 4 4 5 3 3 3 4 4 5 8 5 3 4 4 4 5 5 5 5 5 6 5 4 4 5 5 5 5 5 6 8 8 7 8 6 8 8 7 9 9 8 9 6 4 7 9 9 6 6 6 6 6 7 7 7 7 4 3 4 4 3 2 2 2 2 3 4 5 5 6 6 7 7
3 2 1 2 3 5 3 2 1 1 1 4 5 4 3 3 2 4 4 3 4 4 5 6 5 7 4 7 7 7 8 7 7 8 8 8 8 8 7 7 8 7 6 5 7 6 6 7 7 9 8 10 11 7 8 8 8 6 6 7 6 6 5 6 6 7 7 6 5 4 3 4 4 3 3 3 3 4 4 4 5 6 8 8 8 8
2 6 4 4 4 4 3 3 2 3 4 3 3 3 5 5 3 5 5 7 7 6 6 4 1 2 4 5 7 7 7 7 6 7 7 6 7 8 9 10 9 8 7 9 9 5 5 6 8 9 9 12 9 7 9 10 9 8 8 8 6 5 5 7 6 6 6 5 3 5 3 3 2 3 4 5 4 5 5 7 6 7 6 5 6 7
4 4 2 4 1 2 8 5 5 5 3 2 1 4 6 5 4 5 6 9 8 8 8 7 3 2 4 5 6 6 6 8 8 9 10 7 7 8 9 9 8 8 9 7 7 8 9 9 8 9 11 11 8 7 9 9 9 7 7 7 6 4 5 7 7 5 6 5 4 4 3 3 4 4 5 5 6 6 5 6 9 7 7 6 6 8
5 4 5 5 6 4 2 2 2 4 4 1 4 5 6 6 5 8 8 5 6 6 6 7 8 5 4 5 5 4 5 5 7 7 9 7 6 6 7 8 10 10 10 9 10 11 9 9 9 9 12 12 8 8 8 9 9 7 7 6 6 4 6 5 7 7 7 4 5 5 4 4 4 5 4 5 5 5 5 3 2 8 10 8 8 8
Wind_Direction
107 122 169 184 199 198 192 178 175 175 150 114 91 99 172 152 269 274 297 283 74 88 241 235 256 265 272 265 267 271 287 232 258 262 255 252 249 246 246 245 246 240 239 249 241 240 225 219 214 213 199 202 194 188 180 182 189 190 189 180 196 194 177 174 177 183 181 189 192 203 201 207 190 192 195 198 200 197 198 193 191 191 191 191 192 188
66 125 224 211 204 180 192 157 97 76 40 127 124 116 110 115 157 245 182 334 325 141 295 8 301 265 257 265 267 272 292 261 235 244 253 251 245 243 240 248 246 242 284 280 275 251 234 218 205 196 194 183 182 205 186 189 193 188 179 188 191 176 187 192 189 186 191 195 200 195 202 186 165 179 187 203 205 201 196 195 194 192 189 188 188 184
69 177 224 219 201 120 99 135 121 136 115 44 134 149 95 3 225 304 284 322 308 81 264 358 327 272 261 258 262 254 248 245 231 219 237 240 253 247 242 245 253 261 253 256 253 261 238 215 204 190 200 202 203 193 191 192 177 177 181 191 185 187 188 197 191 178 195 192 167 170 162 167 152 88 156 189 196 186 196 202 201 197 192 183 180 181
112 281 237 213 124 123 59 122 108 70 60 105 87 92 212 231 103 292 284 341 360 91 289 337 318 286 271 256 253 253 243 258 256 236 242 233 241 245 239 232 240 244 252 248 241 240 244 205 199 199 207 209 196 178 183 179 184 184 188 188 186 188 190 188 189 182 154 119 92 74 106 88 107 177 112 79 99 183 204 212 208 212 198 188 177 175
188 222 85 121 125 124 137 135 129 135 128 4 118 126 130 165 207 147 207 182 329 36 58 350 301 292 327 334 325 288 309 284 278 263 258 256 242 253 282 282 228 237 232 242 251 255 229 186 198 202 207 172 186 190 190 188 187 187 192 192 187 183 185 181 169 161 138 117 93 80 59 64 71 45 69 112 227 207 210 213 211 213 201 204 178 179
271 265 124 96 88 70 109 103 167 132 75 348 230 166 177 161 130 198 7 76 17 355 326 36 344 301 294 297 250 275 324 303 252 349 284 252 252 253 255 252 258 251 233 229 236 237 222 212 218 223 179 182 196 198 202 192 189 180 189 183 180 175 175 171 164 158 154 163 161 153 153 174 190 210 187 207 208 201 206 215 194 210 209 204 199 186
199 355 132 154 122 97 93 140 206 112 154 114 240 157 145 135 116 116 43 68 349 175 320 49 126 273 308 266 286 285 289 284 300 294 273 277 259 235 243 271 272 256 257 249 273 263 209 224 212 217 203 199 197 210 179 179 186 187 182 180 175 176 177 170 170 167 164 170 181 187 193 195 199 207 223 210 186 188 220 208 203 213 218 215 205 207
92 54 73 66 88 91 103 113 211 133 110 190 233 121 112 103 112 146 108 122 210 253 299 37 111 215 302 280 222 285 311 290 298 284 273 261 264 258 216 230 242 250 248 237 235 231 225 213 199 201 203 195 205 179 162 180 183 187 184 173 177 178 180 182 171 176 180 181 186 191 201 201 206 207 210 188 202 179 177 195 212 218 223 217 218 214
147 173 119 92 75 97 169 208 166 120 111 216 190 137 152 140 148 125 93 112 56 40 285 330 280 272 252 266 296 307 301 303 274 268 273 277 267 276 281 253 251 248 229 209 220 223 213 209 209 205 202 206 170 170 184 189 189 186 179 176 174 182 181 183 179 178 187 187 184 190 190 206 214 202 207 184 183 174 176 193 205 211 219 223 223 222
2 168 208 145 130 176 230 264 217 125 76 263 134 90 84 76 69 93 100 89 345 53 268 245 183 222 273 279 335 344 242 261 261 264 264 267 290 289 260 260 254 270 268 241 237 237 229 220 212 204 178 167 202 194 187 183 171 179 173 180 181 191 184 180 181 182 186 185 175 185 193 202 205 193 194 175 191 191 177 200 203 209 214 215 220 226
260 310 174 85 172 184 141 29 159 219 130 128 88 73 22 38 30 26 57 86 59 282 251 224 212 167 284 269 226 165 211 200 254 290 283 305 303 290 248 242 305 326 305 221 239 250 251 274 219 165 184 199 191 190 183 187 185 181 183 185 192 194 181 179 183 181 187 186 183 192 194 200 201 196 187 189 202 192 189 205 208 208 216 210 215 212
8 357 50 288 80 104 106 83 13 47 78 119 90 118 51 343 15 31 348 36 149 269 264 280 222 110 203 289 284 242 270 241 229 254 294 316 302 278 291 274 253 252 190 199 163 80 57 78 27 172 201 196 199 186 196 199 192 191 192 187 193 191 186 184 182 184 189 187 193 198 195 202 203 190 194 200 202 195 199 203 210 210 212 218 214 210
52 37 276 321 198 122 103 84 355 9 10 80 85 61 115 252 34 290 16 245 220 215 269 344 241 333 245 218 262 283 265 260 215 220 246 294 297 284 277 276 265 270 285 235 165 129 158 190 202 214 216 191 198 202 198 200 197 196 195 193 192 202 188 187 182 189 190 193 198 197 200 206 198 199 201 205 208 198 202 199 204 196 211 211 217 217
266 284 341 302 354 229 133 119 147 93 338 110 140 139 102 134 132 249 277 239 306 292 269 330 17 259 269 275 226 237 247 225 217 235 250 239 243 247 252 264 260 270 264 254 222 227 222 212 214 226 219 200 198 207 206 203 198 196 196 197 202 209 187 187 190 193 195 204 203 201 203 202 194 204 201 207 206 202 201 195 199 197 202 211 218 218
110 305 264 146 212 198 185 158 174 169 168 207 113 147 178 145 157 205 197 214 222 215 288 285 63 232 113 253 297 247 269 306 299 300 281 267 256 269 269 284 288 267 255 246 235 225 224 231 220 219 224 214 209 212 212 207 200 186 196 196 210 210 199 194 198 196 205 207 207 207 207 203 199 204 203 209 205 196 196 199 199 199 198 209 216 219
204 194 265 253 279 155 178 254 105 93 52 98 151 80 88 228 144 134 209 154 240 335 342 212 215 189 175 270 291 257 282 285 287 284 322 294 290 301 318 273 236 237 246 236 237 244 249 241 240 236 229 225 223 220 217 209 194 195 204 202 210 211 200 200 200 208 208 212 210 211 209 210 205 205 205 209 205 204 195 199 200 202 201 207 212 215
56 241 319 315 35 162 183 136 180 130 183 227 112 203 210 169 107 88 56 27 104 32 258 153 299 277 304 307 260 283 290 281 312 307 331 297 256 271 264 268 208 214 227 232 229 227 235 240 239 224 217 225 227 224 216 206 198 202 199 203 212 217 206 202 206 208 208 212 212 218 218 215 211 207 206 206 205 203 199 201 203 200 200 203 205 210
149 228 308 105 218 320 208 158 90 27 147 99 173 234 192 130 114 134 215 346 57 200 268 88 243 294 36 283 318 3 271 261 276 275 286 294 294 324 309 279 328 245 219 221 229 231 235 236 235 226 226 224 223 219 214 210 205 207 204 202 208 210 213 211 205 209 205 206 213 217 220 222 219 217 214 207 204 197 197 204 203 204 201 202 204 205
125 103 309 333 205 283 342 157 19 358 52 143 196 198 112 248 221 304 90 255 134 267 270 292 269 270 201 246 353 359 169 224 243 271 302 304 310 273 262 284 305 282 293 254 221 230 240 233 227 217 221 226 230 225 214 207 203 208 210 210 207 212 213 210 207 208 212 209 211 212 216 217 223 226 227 221 207 194 200 203 202 204 206 201 201 200
137 154 279 312 142 300 4 111 200 184 4 42 70 98 121 105 176 133 200 175 127 238 53 288 36 261 178 215 192 223 222 217 230 283 284 258 250 257 267 276 277 294 277 278 262 237 230 238 234 220 215 217 220 221 220 209 205 211 209 207 215 221 219 218 215 207 215 213 213 219 216 224 224 223 223 223 216 210 205 203 200 203 203 201 194 201
183 157 215 277 295 93 189 204 207 151 152 143 133 198 177 360 233 114 52 137 173 174 183 256 302 260 256 199 167 199 207 211 200 223 234 251 263 261 262 264 267 259 261 262 263 273 262 246 242 242 240 240 240 231 226 220 216 213 200 214 209 212 218 221 218 207 218 204 218 218 220 220 219 224 220 225 223 223 218 207 201 204 202 191 198 190
119 175 181 137 47 236 245 265 178 183 184 178 177 197 182 132 147 155 256 26 109 126 234 137 259 272 250 192 186 185 217 212 221 215 250 267 267 272 264 252 255 285 265 262 265 258 269 262 267 275 269 254 237 237 224 223 231 224 215 209 202 215 225 220 217 211 210 207 213 218 221 221 220 220 220 222 222 228 227 219 209 201 195 203 199 188
147 137 108 182 202 204 210 282 277 233 20 106 149 242 179 177 109 143 196 253 8 244 120 186 50 271 156 181 206 202 215 230 215 207 230 245 254 269 290 300 284 240 263 269 257 249 247 247 231 228 235 234 233 236 228 223 220 224 218 203 206 210 229 215 218 206 204 207 213 220 219 217 217 215 221 223 224 228 227 230 228 208 204 203 199 197
102 89 108 315 317 319 316 317 21 60 179 306 290 112 145 188 173 168 159 180 175 232 189 250 223 268 6 347 297 262 233 247 203 170 235 260 294 302 301 303 296 303 285 276 273 267 261 238 212 210 227 236 242 236 232 231 231 232 227 218 204 218 225 206 208 197 198 206 216 218 217 219 216 216 218 221 221 226 225 221 220 223 223 210 197 198
152 265 142 119 22 343 347 337 349 330 83 197 181 202 161 118 105 133 106 118 223 213 190 153 234 259 244 310 278 17 353 305 308 246 189 277 286 280 293 296 305 299 296 302 294 272 263 259 234 237 242 236 240 246 242 239 235 231 234 221 215 224 214 207 197 196 200 198 211 215 218 221 214 218 219 220 215 221 219 220 216 210 220 216 212 206
180 179 144 161 186 193 206 195 211 206 196 210 206 186 187 158 160 116 221 186 222 238 164 204 245 249 154 321 110 31 356 295 263 257 297 225 255 311 333 322 322 332 309 290 279 288 296 295 259 256 242 240 239 234 233 237 237 238 241 237 228 222 208 209 190 203 199 198 204 216 219 221 216 220 219 217 217 216 214 216 214 210 214 213 217 209
175 184 191 193 197 209 216 214 49 100 101 188 228 175 198 198 186 185 134 186 215 222 153 236 231 260 250 267 274 269 255 237 287 321 321 323 320 300 257 266 277 279 278 273 279 296 312 295 267 255 254 244 252 239 236 236 239 236 238 247 239 227 212 200 191 199 204 205 206 213 222 218 219 215 216 215 217 214 213 215 216 214 212 206 217 213
85 193 219 213 218 220 209 177 186 158 178 204 191 197 196 187 186 187 193 225 218 218 252 233 229 248 261 242 225 239 256 274 273 272 283 286 275 276 281 290 292 275 266 273 278 274 269 270 277 267 258 255 249 254 251 246 242 239 235 244 243 227 215 205 192 201 208 208 214 216 225 222 217 213 214 212 213 213 213 213 214 217 221 208 213 216
154 198 226 184 235 236 210 184 168 177 185 192 199 192 191 202 189 194 217 226 211 200 230 247 205 223 249 254 233 229 233 233 247 247 238 246 265 285 289 279 276 285 291 291 272 263 259 263 261 263 260 262 274 261 256 253 251 248 249 250 252 226 225 199 192 210 212 211 219 225 225 216 212 214 215 211 212 214 212 211 213 211 211 215 220 217
146 233 213 183 220 234 223 178 191 185 206 204 200 202 201 195 200 204 216 220 218 218 233 247 247 227 241 255 238 223 234 219 233 244 239 232 239 244 254 268 267 269 270 266 269 265 250 250 257 262 274 283 262 254 254 256 253 248 243 249 245 234 230 165 213 220 221 224 230 235 224 206 205 208 210 213 214 216 210 210 209 208 213 215 215 218
157 251 179 165 199 239 235 198 192 201 185 206 224 218 211 209 209 209 214 225 226 243 246 255 260 262 250 250 275 238 207 162 257 206 210 223 232 239 239 240 246 249 258 268 273 274 268 256 256 262 261 260 259 255 256 253 254 249 244 246 246 239 213 180 213 218 218 229 232 229 206 203 211 202 212 216 215 216 211 210 205 210 215 215 212 215
166 257 50 106 186 256 236 169 198 190 212 210 225 227 224 218 221 219 224 217 205 216 226 239 254 255 260 134 227 246 139 186 232 235 227 241 242 242 242 241 241 252 256 261 265 266 273 274 267 269 271 269 262 259 257 258 253 237 240 239 239 236 187 196 213 220 227 234 235 221 214 210 203 207 218 212 217 215 212 205 208 214 215 213 214 213
180 161 168 147 209 229 242 140 146 142 114 274 253 233 222 217 214 216 226 224 216 207 213 219 236 242 250 150 231 255 189 215 233 235 232 235 239 239 245 243 235 241 247 251 256 261 266 281 292 285 272 264 262 253 239 228 236 243 252 249 249 199 196 213 218 227 234 238 232 230 219 207 208 215 217 218 217 213 205 209 216 218 215 217 215 202
136 181 201 165 217 224 215 129 131 126 214 231 240 183 164 212 203 202 222 221 224 193 216 221 241 256 257 186 223 251 243 218 225 224 212 221 232 239 244 243 238 241 246 249 259 274 284 284 280 273 264 268 276 278 289 291 258 265 264 256 235 192 214 209 225 223 236 240 239 236 223 217 216 223 226 220 211 205 209 212 220 220 218 218 208 212
150 165 193 175 207 220 119 120 132 212 230 232 64 171 199 210 191 206 225 226 222 221 241 261 263 259 248 239 231 247 245 244 253 254 245 240 225 228 236 243 238 235 249 270 277 268 260 264 279 287 296 292 291 306 330 319 286 277 292 256 227 220 212 223 227 232 236 242 245 235 227 221 219 228 227 215 208 206 214 217 223 219 216 211 211 212
177 162 163 127 133 51 129 168 216 229 239 352 266 235 188 165 191 192 254 248 227 210 212 230 242 250 256 255 258 252 252 249 259 271 239 238 221 219 222 234 252 258 258 245 237 259 261 255 251 262 278 291 318 311 305 292 312 299 279 247 219 221 226 228 237 247 246 242 239 232 225 217 222 225 222 215 209 212 220 220 218 219 213 214 219 225
162 67 67 213 205 200 189 205 229 17 323 284 268 229 151 178 156 169 226 244 225 212 206 227 241 248 252 252 251 257 257 284 277 282 251 227 246 276 194 217 216 227 218 241 212 237 236 235 243 257 268 289 287 297 298 311 315 292 277 249 230 210 229 221 237 241 236 241 241 233 225 219 221 224 220 214 213 219 221 218 219 220 202 214 218 221
159 183 194 200 233 184 212 229 243 237 245 247 235 114 203 174 169 179 201 260 243 200 207 217 233 240 246 249 252 253 8 340 279 277 250 236 229 192 304 270 274 245 233 244 273 264 259 255 259 268 254 284 299 279 275 305 315 308 298 286 267 229 245 228 241 239 238 242 239 230 224 220 217 223 220 213 219 222 222 218 218 214 196 209 213 220
186 194 192 201 208 163 211 224 221 215 233 245 232 184 207 186 177 160 172 246 244 173 203 212 226 234 234 237 245 249 169 257 263 252 263 232 263 210 208 248 248 246 240 236 255 288 292 276 269 280 295 302 305 298 321 322 321 304 283 281 277 256 258 249 250 246 240 244 239 233 226 221 220 223 222 222 225 221 222 216 215 209 196 213 214 224
184 191 165 213 208 199 202 220 227 217 254 257 247 270 274 118 102 97 199 252 253 174 204 203 214 227 230 236 228 126 174 231 262 265 231 215 243 238 207 317 346 335 318 313 290 242 260 291 329 324 321 309 283 302 320 327 315 279 274 275 269 264 255 252 249 253 257 259 249 239 231 222 223 225 223 228 229 222 224 218 209 200 201 212 212 222
191 174 193 204 205 215 212 239 326 282 279 212 199 215 146 151 120 160 212 231 258 220 358 3 272 281 334 357 135 193 231 207 202 256 343 4 345 324 346 303 250 227 266 279 274 289 284 270 237 260 270 277 285 297 301 306 278 272 267 272 278 261 257 262 269 269 265 262 259 250 239 230 222 228 228 223 225 220 220 205 207 200 203 210 210 214
187 176 205 191 215 209 217 229 244 282 235 183 259 150 175 106 222 207 232 286 28 52 340 95 78 49 74 95 156 172 291 307 307 338 333 342 314 288 292 306 328 325 286 258 262 265 278 311 304 289 283 262 250 255 266 250 254 265 277 286 270 263 283 280 272 274 272 266 259 256 250 241 238 229 232 225 216 217 218 211 202 203 203 203 198 208
181 177 190 193 183 187 152 224 214 230 309 117 150 66 297 177 241 177 97 15 5 118 103 56 81 35 91 52 93 155 311 358 4 328 316 304 330 311 311 319 319 310 312 324 329 328 343 313 297 290 286 295 277 248 252 238 265 276 273 271 265 280 290 275 276 273 269 266 266 260 254 250 242 239 229 228 214 213 219 199 198 202 193 193 199 205
177 183 185 213 178 185 195 212 211 201 134 296 87 171 223 152 286 193 149 44 334 38 78 89 57 111 94 89 28 10 350 332 342 224 300 303 301 309 311 306 296 294 294 280 249 274 303 301 296 304 301 292 284 267 261 245 285 289 289 274 286 296 278 276 273 274 274 268 264 264 260 253 249 246 237 228 215 213 212 199 198 196 197 196 197 203
206 203 173 198 178 184 204 206 177 179 164 268 92 107 110 18 35 51 77 100 56 349 316 47 15 11 93 120 101 151 351 264 291 246 217 267 269 272 284 282 284 289 292 299 301 304 305 279 290 302 306 305 312 313 284 219 249 280 275 282 327 302 306 299 299 291 279 273 268 265 264 261 249 238 231 224 201 208 209 204 183 197 206 191 203 205
349 284 43 106 251 354 327 166 165 92 63 64 74 97 104 88 46 64 52 45 11 334 283 14 329 330 351 132 52 340 296 286 291 290 257 231 229 253 250 272 293 295 292 300 303 308 308 310 291 294 293 301 302 303 302 238 216 269 274 299 309 298 297 298 297 289 277 276 276 273 272 261 261 248 231 219 211 212 207 195 193 198 196 191 205 205
261 202 69 148 263 161 236 161 156 164 106 119 105 78 83 88 86 61 61 53 2 342 339 322 337 333 326 348 348 326 316 327 333 317 322 321 322 311 305 301 297 291 300 307 300 315 319 328 313 298 293 294 296 303 303 299 250 247 279 290 290 287 285 286 278 277 279 274 275 279 265 239 247 243 244 216 224 222 210 198 194 197 197 195 200 205
283 176 62 223 152 150 233 162 181 344 209 131 119 110 64 72 105 43 36 27 17 14 17 345 2 355 356 347 341 343 321 331 345 335 336 333 329 326 321 319 320 324 307 281 286 298 300 294 283 289 290 286 286 293 293 295 291 283 278 281 283 279 277 270 263 263 268 268 267 265 248 242 243 221 214 215 191 199 205 207 194 198 200 196 199 201
176 124 205 172 169 278 315 278 220 150 63 75 72 55 59 27 34 53 52 53 38 37 14 357 354 319 349 335 343 345 340 326 336 329 328 322 326 325 324 320 321 314 311 318 310 300 278 279 284 282 286 281 286 298 296 294 296 305 298 288 284 273 267 264 260 255 263 264 253 256 243 231 228 212 205 213 217 215 200 193 204 207 225 227 210 207
100 179 185 91 89 199 202 229 147 202 249 147 326 43 35 12 46 70 48 41 32 21 4 359 358 22 42 23 1 354 346 329 336 338 327 327 322 320 317 317 317 317 314 307 302 302 302 295 285 288 287 283 292 294 289 290 289 288 282 281 277 252 248 262 264 261 259 245 234 240 234 231 227 217 212 207 207 210 238 211 192 206 202 227 220 214
157 200 140 172 169 225 230 181 103 109 90 111 147 75 37 7 42 61 49 25 11 12 356 350 348 358 41 29 5 11 358 345 329 327 319 320 326 318 314 316 319 318 313 316 316 310 303 298 301 298 294 294 301 292 289 289 291 293 285 273 264 234 239 246 257 259 257 238 229 217 209 217 225 234 229 227 215 214 210 232 244 203 204 200 201 202